Change the Weather History Date:

Friday, December 7, 2012

  Actual Average Record
Temperature  
Mean Temperature 22 °F -  
Max Temperature 28 °F 24 °F 42 °F (1990)
Min Temperature 15 °F 5 °F -34 °F (1976)
Degree Days  
Heating Degree Days 44    
Moisture  
Dew Point 13 °F    
Average Humidity 66    
Maximum Humidity 86    
Minimum Humidity 54    
Precipitation  
Precipitation 0.00 in - - ()
Sea Level Pressure  
Sea Level Pressure 29.99 in    
Wind  
Wind Speed 4 mph (NW)    
Max Wind Speed 12 mph    
Max Gust Speed 17 mph    
Visibility 10 miles    
Events      
Averages and records for this station are not official NWS values.
T = Trace of Precipitation, MM = Missing Value Source: NWS Daily Summary

Daily Weather History Graph

Daily Weather History Graph

Search for Another Location

Airport or City:

Trip Planner

Search our weather history database for the weather conditions in past years. The results will help you decide how hot, cold, wet, or windy it might be!

Date:

Astronomy

Dec. 07, 2012 Rise Set
Actual Time 7:41 AM CST 4:24 PM CST
Civil Twilight 7:06 AM CST 4:59 PM CST
Nautical Twilight 6:28 AM CST 5:37 PM CST
Astronomical Twilight 5:52 AM CST 6:13 PM CST
Moon 12:41 AM CST (12/7) 12:39 PM CST (12/7)
Length of Visible Light 9h 52m
Length of Day
8h 43m
Last Quarter, 38% of the Moon is Illuminated
Dec 7
Last Quarter
Dec 13
New
Dec 19
First Quarter
Dec 28
Full
Jan 4
Last Quarter

Hourly Weather History & Observations

Time (CST) Temp. Windchill Dew Point Humidity Pressure Visibility Wind Dir Wind Speed Gust Speed Precip Events Conditions
12:11 AM 23.0 °F 12.4 °F 14.0 °F 68% 29.93 in 10.0 mi NW 10.4 mph 16.1 mph N/A   Scattered Clouds
12:30 AM 23.0 °F 11.7 °F 14.0 °F 68% 29.93 in 10.0 mi NW 11.5 mph 17.3 mph N/A   Clear
12:50 AM 24.8 °F 14.6 °F 14.0 °F 64% 29.94 in 10.0 mi NW 10.4 mph - N/A   Clear
1:10 AM 24.8 °F 17.9 °F 14.0 °F 64% 29.94 in 10.0 mi NW 5.8 mph - N/A   Scattered Clouds
1:30 AM 24.8 °F 17.9 °F 14.0 °F 64% 29.95 in 10.0 mi WNW 5.8 mph - N/A   Mostly Cloudy
1:51 AM 26.6 °F 20.0 °F 14.0 °F 59% 29.96 in 10.0 mi NNW 5.8 mph - N/A   Overcast
2:10 AM 26.6 °F 17.5 °F 14.0 °F 59% 29.96 in 10.0 mi NW 9.2 mph - N/A   Overcast
2:31 AM 26.6 °F 19.1 °F 14.0 °F 59% 29.96 in 10.0 mi NNW 6.9 mph - N/A   Mostly Cloudy
2:51 AM 26.6 °F - 14.0 °F 59% 29.96 in 10.0 mi Calm Calm - N/A   Clear
3:11 AM 24.8 °F - 14.0 °F 64% 29.96 in 10.0 mi Calm Calm - N/A   Clear
3:30 AM 24.8 °F - 14.0 °F 64% 29.96 in 10.0 mi Calm Calm - N/A   Clear
3:50 AM 23.0 °F - 14.0 °F 68% 29.96 in 10.0 mi Calm Calm - N/A   Clear
4:10 AM 23.0 °F - 14.0 °F 68% 29.96 in 10.0 mi Calm Calm - N/A   Clear
4:30 AM 21.2 °F - 14.0 °F 74% 29.96 in 10.0 mi Calm Calm - N/A   Clear
4:50 AM 23.0 °F - 14.0 °F 68% 29.96 in 10.0 mi Calm Calm - N/A   Clear
5:10 AM 21.2 °F - 14.0 °F 74% 29.96 in 10.0 mi Calm Calm - N/A   Scattered Clouds
5:30 AM 21.2 °F - 14.0 °F 74% 29.96 in 10.0 mi Calm Calm - N/A   Scattered Clouds
5:50 AM 19.4 °F - 14.0 °F 80% 29.96 in 10.0 mi Calm Calm - N/A   Clear
6:10 AM 19.4 °F - 14.0 °F 80% 29.97 in 10.0 mi Calm Calm - N/A   Clear
6:31 AM 19.4 °F - 12.2 °F 74% 29.96 in 10.0 mi Calm Calm - N/A   Clear
6:50 AM 17.6 °F - 12.2 °F 79% 29.97 in 10.0 mi Calm Calm - N/A   Clear
7:11 AM 17.6 °F - 12.2 °F 79% 29.97 in 10.0 mi Calm Calm - N/A   Clear
7:30 AM 17.6 °F - 12.2 °F 79% 29.98 in 10.0 mi Calm Calm - N/A   Clear
7:50 AM 17.6 °F - 10.4 °F 73% 29.98 in 7.0 mi Calm Calm - N/A   Clear
8:10 AM 15.8 °F - 10.4 °F 79% 29.99 in 10.0 mi Calm Calm - N/A   Clear
8:30 AM 17.6 °F - 12.2 °F 79% 29.99 in 10.0 mi Calm Calm - N/A   Clear
8:51 AM 19.4 °F - 14.0 °F 80% 29.99 in 10.0 mi Calm Calm - N/A   Clear
9:11 AM 21.2 °F - 17.6 °F 86% 30.00 in 10.0 mi Calm Calm - N/A   Clear
9:30 AM 23.0 °F - 17.6 °F 80% 30.00 in 10.0 mi Calm Calm - N/A   Clear
9:50 AM 24.8 °F - 19.4 °F 80% 30.00 in 10.0 mi Calm Calm - N/A   Clear
10:10 AM 26.6 °F 21.2 °F 19.4 °F 74% 30.01 in 10.0 mi West 4.6 mph - N/A   Scattered Clouds
10:31 AM 26.6 °F 22.6 °F 19.4 °F 74% 30.01 in 10.0 mi West 3.5 mph - N/A   Mostly Cloudy
10:50 AM 26.6 °F 21.2 °F 17.6 °F 69% 30.01 in 10.0 mi NNW 4.6 mph - N/A   Mostly Cloudy
11:11 AM 26.6 °F 21.2 °F 17.6 °F 69% 30.01 in 10.0 mi WNW 4.6 mph - N/A   Mostly Cloudy
11:30 AM 28.4 °F 23.3 °F 17.6 °F 64% 30.00 in 10.0 mi NW 4.6 mph - N/A   Mostly Cloudy
11:50 AM 28.4 °F 23.3 °F 17.6 °F 64% 29.99 in 10.0 mi NW 4.6 mph - N/A   Mostly Cloudy
12:10 PM 28.4 °F 22.2 °F 15.8 °F 59% 30.00 in 10.0 mi WNW 5.8 mph - N/A   Overcast
12:30 PM 28.4 °F - 15.8 °F 59% 29.99 in 10.0 mi Calm Calm - N/A   Overcast
12:50 PM 28.4 °F 24.6 °F 15.8 °F 59% 29.99 in 10.0 mi NW 3.5 mph - N/A   Overcast
1:10 PM 28.4 °F 23.3 °F 15.8 °F 59% 29.99 in 10.0 mi NNW 4.6 mph - N/A   Overcast
1:30 PM 28.4 °F 23.3 °F 14.0 °F 55% 29.99 in 10.0 mi WNW 4.6 mph - N/A   Overcast
1:51 PM 28.4 °F 20.4 °F 14.0 °F 55% 29.99 in 10.0 mi West 8.1 mph - N/A   Overcast
2:11 PM 28.4 °F 22.2 °F 14.0 °F 55% 30.00 in 10.0 mi WNW 5.8 mph - N/A   Overcast
2:31 PM 26.6 °F 20.0 °F 14.0 °F 59% 30.01 in 10.0 mi NW 5.8 mph - N/A   Overcast
2:50 PM 26.6 °F 21.2 °F 12.2 °F 55% 30.00 in 10.0 mi NW 4.6 mph - N/A   Overcast
3:10 PM 26.6 °F 21.2 °F 12.2 °F 55% 30.01 in 10.0 mi NW 4.6 mph - N/A   Overcast
3:30 PM 26.6 °F 19.1 °F 12.2 °F 55% 30.01 in 10.0 mi NW 6.9 mph - N/A   Overcast
3:50 PM 26.6 °F 20.0 °F 12.2 °F 55% 30.01 in 10.0 mi North 5.8 mph - N/A   Overcast
4:11 PM 26.6 °F 22.6 °F 12.2 °F 55% 30.02 in 10.0 mi NNW 3.5 mph - N/A   Overcast
4:30 PM 24.8 °F 17.9 °F 12.2 °F 59% 30.02 in 10.0 mi NW 5.8 mph - N/A   Overcast
4:50 PM 24.8 °F - 12.2 °F 59% 30.02 in 10.0 mi Calm Calm - N/A   Overcast
5:11 PM 24.8 °F 17.9 °F 10.4 °F 54% 30.02 in 10.0 mi NNW 5.8 mph - N/A   Overcast
5:50 PM 23.0 °F - 10.4 °F 59% 30.01 in 10.0 mi Calm Calm - N/A   Overcast
6:10 PM 23.0 °F - 10.4 °F 59% 30.01 in 10.0 mi Calm Calm - N/A   Overcast
6:30 PM 23.0 °F - 10.4 °F 59% 30.02 in 10.0 mi Calm Calm - N/A   Overcast
6:50 PM 23.0 °F 18.4 °F 10.4 °F 59% 30.02 in 10.0 mi North 3.5 mph - N/A   Overcast
7:10 PM 23.0 °F - 10.4 °F 59% 30.02 in 10.0 mi Calm Calm - N/A   Overcast
7:30 PM 23.0 °F - 10.4 °F 59% 30.02 in 10.0 mi Calm Calm - N/A   Overcast
7:50 PM 23.0 °F - 10.4 °F 59% 30.02 in 10.0 mi Calm Calm - N/A   Overcast
8:11 PM 23.0 °F - 10.4 °F 59% 30.02 in 10.0 mi Calm Calm - N/A   Mostly Cloudy
8:30 PM 23.0 °F - 10.4 °F 59% 30.02 in 10.0 mi Calm Calm - N/A   Clear
9:10 PM 21.2 °F - 10.4 °F 63% 30.03 in 10.0 mi Calm Calm - N/A   Clear
9:30 PM 21.2 °F - 10.4 °F 63% 30.02 in 10.0 mi Calm Calm - N/A   Clear
9:50 PM 19.4 °F 14.3 °F 10.4 °F 68% 30.02 in 10.0 mi NNW 3.5 mph - N/A   Clear
10:10 PM 19.4 °F 14.3 °F 10.4 °F 68% 30.02 in 10.0 mi North 3.5 mph - N/A   Clear
10:30 PM 17.6 °F - 10.4 °F 73% 30.02 in 10.0 mi Calm Calm - N/A   Scattered Clouds
10:50 PM 17.6 °F - 8.6 °F 68% 30.02 in 10.0 mi Calm Calm - N/A   Mostly Cloudy
11:10 PM 17.6 °F - 10.4 °F 73% 30.03 in 10.0 mi Calm Calm - N/A   Overcast
11:30 PM 19.4 °F 12.8 °F 10.4 °F 68% 30.03 in 10.0 mi North 4.6 mph - N/A   Overcast
11:51 PM 19.4 °F 12.8 °F 10.4 °F 68% 30.03 in 10.0 mi North 4.6 mph - N/A   Overcast